Theta_e
344 344 345 346 346 346 346 346 348 345 341 343 342 345 347 346 345 336 332 329 322 320 322 322 321 319 319 323 330 333 333 332 332 331 331 331 331 331 331 331 330 330 330
343 343 344 344 345 346 346 346 347 348 341 342 342 344 348 346 342 337 329 328 332 324 321 321 324 323 321 320 320 325 332 330 332 331 330 331 331 328 328 328 328 328 328
343 343 343 344 345 345 345 346 346 348 343 340 341 343 347 346 345 343 341 342 342 342 338 327 322 326 325 322 321 325 329 331 331 328 327 329 329 328 328 328 328 328 328
343 343 343 343 344 344 345 346 346 347 347 339 339 341 345 346 346 345 345 343 344 344 344 341 335 323 325 328 325 323 326 328 329 330 331 329 328 329 329 327 326 326 327
342 343 343 343 344 344 345 345 345 346 347 344 338 340 342 346 346 347 348 348 345 344 344 344 342 336 324 326 331 330 328 328 328 329 332 332 331 331 330 329 327 327 326
342 341 342 344 344 343 344 345 346 345 346 347 344 338 340 343 343 345 347 348 349 346 345 345 345 342 339 330 327 332 333 331 330 331 331 332 331 331 330 330 329 329 327
341 341 342 343 343 343 344 344 345 346 345 345 346 346 340 339 342 344 346 347 348 349 349 347 347 345 342 341 334 328 332 334 331 334 334 330 328 329 329 328 329 328 326
341 342 343 343 343 344 345 344 345 345 346 345 343 345 347 345 341 341 341 344 346 347 347 346 348 347 345 343 340 332 330 331 331 332 334 332 328 329 327 327 329 327 325
342 342 343 344 344 345 345 344 344 345 346 346 346 346 345 345 345 344 342 344 346 347 347 349 351 348 345 344 342 338 331 330 330 332 333 331 328 327 329 328 327 325 325
342 341 341 343 344 344 344 344 345 345 346 347 347 346 347 347 346 346 346 345 348 348 349 353 351 348 346 344 341 339 332 331 331 332 331 327 327 329 326 325 324 320 319
340 341 342 342 343 343 344 346 348 348 347 347 348 349 348 348 347 347 348 348 349 352 353 354 350 344 343 340 336 336 332 334 333 333 328 328 329 326 321 317 318 318 317
342 344 345 344 344 346 348 349 351 349 351 350 351 352 350 349 349 349 350 349 353 353 353 349 343 341 340 334 332 332 334 334 334 328 328 328 326 318 317 316 315 315 315
345 346 347 348 350 352 354 354 355 355 355 355 355 355 353 355 353 351 351 355 355 351 349 342 341 338 336 333 333 336 332 331 330 329 328 326 319 318 317 316 316 316 315
343 344 344 347 349 353 356 357 357 357 358 357 357 357 356 356 352 354 345 336 350 345 343 343 341 337 335 336 336 333 330 328 328 328 326 319 318 317 317 317 317 316 314
343 346 347 345 348 350 354 356 358 359 358 355 355 357 355 352 352 348 339 330 334 341 341 340 337 336 337 336 334 332 329 329 327 326 320 319 317 317 317 318 318 315 312
350 352 351 350 348 349 352 351 355 357 358 359 358 353 345 346 343 343 337 333 331 330 336 339 338 338 336 334 333 331 326 324 323 321 320 318 318 318 319 319 315 311 307
346 351 354 355 355 353 353 346 339 335 335 334 334 332 332 327 330 333 331 331 335 339 338 338 338 337 334 332 331 325 322 322 322 322 320 318 319 319 318 315 311 308 305
340 340 339 342 348 348 350 344 335 333 332 332 331 331 330 331 334 331 338 340 341 340 338 338 336 335 333 331 326 322 321 321 320 319 318 319 319 317 314 311 306 304 303
340 335 335 336 335 339 343 338 334 332 333 333 332 333 333 332 333 340 339 337 337 339 339 337 335 333 330 326 324 321 320 320 318 318 317 317 316 314 310 305 304 303 302
339 338 339 337 335 336 335 333 333 332 331 331 332 332 338 340 339 339 338 337 338 335 332 328 325 325 325 324 320 320 320 318 317 315 314 314 311 308 305 304 304 302 301
339 339 339 336 333 332 332 331 331 331 330 331 333 337 336 336 336 334 333 328 327 325 324 324 323 320 319 319 319 317 316 315 314 312 308 304 304 305 305 304 303 300 301
336 336 336 336 335 333 333 334 334 335 333 333 335 336 335 335 332 329 325 323 322 322 320 319 319 320 319 317 316 315 313 312 311 310 308 306 304 305 304 303 302 300 301
335 334 333 333 336 335 334 333 333 333 334 333 333 332 332 330 326 324 322 321 320 319 319 320 320 318 317 316 315 314 311 308 308 308 306 304 304 304 303 302 299 299 300
332 332 331 331 332 332 332 331 330 329 331 332 331 329 325 325 324 323 322 321 320 319 319 318 318 318 317 316 315 314 311 309 307 306 305 303 304 303 303 299 297 298 300
326 327 331 332 331 331 330 330 330 329 329 326 325 324 324 324 324 323 322 320 320 319 320 319 318 318 317 316 315 312 311 309 304 304 301 301 300 300 299 298 297 297 300
326 325 325 327 328 328 327 326 327 327 328 328 326 326 325 324 324 324 322 320 321 321 321 320 319 319 317 316 314 312 312 311 308 303 301 300 300 299 298 297 297 298 299
Wind_Speed
53 53 53 51 48 44 39 34 33 32 32 34 33 29 27 24 22 24 21 20 21 19 18 16 16 16 17 17 17 16 14 13 13 12 10 9 8 8 10 11 12 14 17
53 52 53 51 50 47 43 37 35 33 34 34 37 35 31 28 25 25 24 23 22 22 21 20 19 18 18 18 17 17 16 15 14 14 13 12 12 11 10 12 14 16 17
53 53 53 53 52 50 45 40 39 36 36 37 37 37 35 33 31 28 27 25 24 22 21 21 22 21 21 20 19 18 16 15 15 16 15 14 13 11 12 12 13 16 17
52 52 52 53 52 49 46 43 40 40 39 40 41 41 39 36 34 32 30 29 27 26 24 23 22 25 24 22 21 19 17 17 17 17 15 15 13 14 16 17 16 17 19
50 50 52 52 50 47 47 45 41 42 42 42 44 45 44 42 40 37 35 32 30 28 27 27 25 24 25 25 23 21 19 19 18 18 18 19 19 16 16 17 20 20 21
45 47 50 51 50 49 49 48 45 44 46 46 46 48 49 47 44 42 38 35 32 31 29 27 29 28 25 25 27 23 23 21 20 20 21 22 22 19 18 18 21 23 23
44 42 46 48 49 49 49 51 51 48 47 49 49 48 50 51 49 44 39 38 37 35 31 28 29 30 26 24 26 27 23 23 23 21 22 21 22 19 19 20 21 20 19
47 47 46 46 45 47 49 52 53 53 51 51 52 51 50 49 48 46 43 41 41 38 33 30 28 28 27 26 25 26 25 21 22 21 21 20 19 20 19 20 21 21 19
50 48 47 45 45 46 49 50 53 57 56 55 54 54 53 51 47 44 42 44 46 41 36 31 27 26 24 23 26 26 24 21 19 18 19 19 17 18 18 17 17 18 22
48 45 45 44 45 46 48 48 50 53 57 57 56 55 54 51 46 42 41 45 44 38 31 28 24 23 22 23 25 25 24 20 19 17 17 15 16 16 15 14 17 18 17
44 44 44 43 44 44 45 48 50 51 52 56 56 55 55 52 49 44 40 42 39 32 29 28 22 19 21 21 21 22 22 18 18 18 16 15 14 12 12 12 11 9 12
38 40 40 40 41 45 47 48 48 47 53 52 53 53 54 50 44 42 41 40 32 30 28 24 23 24 21 19 19 18 19 19 18 17 16 14 10 8 8 6 6 8 12
30 32 33 35 37 39 40 41 43 42 44 43 43 48 50 47 40 36 40 42 35 30 25 23 25 26 22 21 18 17 15 15 17 17 15 12 9 8 8 7 9 11 13
23 26 25 27 29 29 30 31 33 33 34 36 39 42 39 42 39 36 23 20 36 21 18 23 24 21 19 18 16 17 16 15 16 14 14 12 8 8 10 10 12 15 15
13 13 13 18 22 23 24 26 24 27 31 34 40 40 39 40 43 39 30 20 5 14 16 25 23 21 18 17 18 18 17 18 17 17 14 11 8 8 11 11 15 17 16
4 4 6 8 12 16 18 9 17 27 27 34 34 30 21 32 39 38 31 41 38 34 30 28 23 21 17 17 18 17 18 18 17 17 13 11 10 11 14 14 17 18 14
4 1 3 5 9 17 22 21 18 13 10 12 6 19 3 10 28 21 29 34 33 35 32 31 29 23 17 18 19 19 18 17 16 16 14 12 12 13 14 15 18 15 11
5 2 2 5 9 18 25 27 13 4 7 15 19 16 6 9 18 31 31 27 27 30 30 28 23 20 18 22 22 21 18 17 13 12 13 14 13 12 14 16 14 11 9
4 7 7 8 13 18 24 23 21 17 15 11 9 18 15 22 24 31 27 26 31 28 24 21 18 19 23 23 21 19 17 15 13 12 13 13 12 13 14 13 12 8 7
9 6 9 13 16 23 23 20 20 21 23 9 11 25 22 24 28 28 23 20 20 20 20 21 22 23 22 20 18 16 15 14 13 13 13 13 12 12 13 12 11 6 5
12 10 8 5 5 8 5 7 14 20 11 20 28 25 23 22 22 21 20 20 19 18 20 21 20 18 18 17 15 12 11 12 13 14 13 11 12 15 14 12 9 5 4
20 17 14 10 8 9 7 8 9 12 17 20 19 21 19 18 19 20 20 18 16 15 15 16 17 17 17 13 7 4 6 10 12 12 12 12 14 15 15 11 8 3 4
16 16 16 14 11 13 14 13 13 13 15 17 19 20 18 17 17 18 18 18 17 16 15 14 17 18 14 8 4 1 1 3 8 11 13 13 14 16 13 10 6 3 3
10 11 14 12 11 11 12 11 11 11 12 16 18 19 18 19 20 21 20 19 17 16 16 17 17 17 12 6 7 4 2 1 5 11 14 14 15 14 12 9 5 3 3
7 10 10 9 9 8 8 9 6 8 11 15 17 14 14 18 21 22 22 20 18 18 17 16 16 16 15 10 9 7 4 1 3 8 11 12 11 10 10 8 6 3 4
9 8 6 4 6 6 4 5 4 4 10 14 19 18 20 20 21 24 24 21 20 18 17 19 17 17 17 14 11 10 6 3 1 5 7 6 7 8 10 8 6 4 4
Wind_Direction
236 238 237 236 236 236 236 235 235 233 230 229 229 234 235 230 233 231 227 229 233 234 235 238 242 244 246 248 248 253 252 256 265 279 284 284 279 279 276 279 280 273 276
238 239 240 238 238 238 238 236 236 236 232 232 232 233 231 228 228 229 227 228 232 235 237 237 239 241 245 248 248 250 253 255 263 276 276 275 284 283 286 289 286 288 289
238 239 240 239 237 239 239 237 236 236 234 232 231 229 228 227 226 228 230 232 235 241 244 244 242 241 243 247 247 250 256 262 269 274 274 271 276 281 292 294 292 294 294
237 238 239 239 236 237 238 237 236 236 236 233 231 231 230 230 230 231 232 233 236 239 242 246 247 245 247 247 248 249 250 254 263 270 271 269 269 274 281 290 300 312 309
238 238 241 240 238 235 236 237 237 237 237 237 235 234 235 235 234 233 233 235 238 243 245 246 247 248 249 249 250 247 247 250 253 258 265 268 267 267 281 289 293 304 303
236 241 241 239 238 237 233 235 235 237 238 239 238 237 239 239 238 238 239 241 243 245 248 250 251 248 249 251 250 253 251 250 250 250 257 260 270 273 282 283 292 300 302
234 237 238 237 239 238 233 231 234 235 238 239 241 241 241 242 243 242 242 245 246 247 250 252 253 251 251 251 251 251 253 252 254 258 264 265 273 270 276 283 291 294 291
237 232 233 235 237 238 235 232 233 234 237 240 242 243 244 245 245 245 244 245 248 247 247 247 249 247 247 246 249 248 250 255 254 259 269 273 267 272 281 286 286 286 283
235 235 235 235 236 237 237 237 234 235 236 238 241 244 245 246 246 246 242 242 244 243 243 242 239 241 238 237 238 240 244 250 246 259 268 266 267 276 278 280 282 284 289
238 239 240 239 238 239 241 240 238 237 240 243 244 246 248 249 248 244 240 239 240 237 234 235 234 235 232 234 234 234 238 246 240 264 258 253 271 272 277 282 286 291 294
250 244 240 241 242 245 246 244 242 240 240 243 245 247 249 248 247 240 236 235 233 226 221 228 221 228 232 237 233 233 241 238 241 261 242 256 262 264 276 290 295 295 294
245 244 243 243 246 244 243 244 242 245 243 240 242 245 249 249 244 237 230 224 214 214 216 211 212 216 216 221 227 236 241 247 239 226 243 248 240 250 282 290 283 297 305
249 252 253 255 254 252 250 248 244 242 242 242 237 241 247 250 238 234 224 211 201 198 203 206 207 202 200 214 227 241 237 222 222 232 235 227 224 258 264 261 278 292 303
263 263 265 264 260 254 247 248 249 244 243 243 238 239 236 238 235 215 205 287 172 173 191 210 207 200 194 213 218 218 218 225 230 230 218 214 232 261 257 266 278 283 295
262 264 255 251 247 240 235 237 234 230 241 254 257 245 228 224 223 199 171 143 298 227 210 216 205 202 201 206 207 209 219 224 220 213 209 220 238 250 258 276 276 278 288
352 292 259 241 229 228 213 191 212 229 235 227 217 211 196 216 186 191 226 227 193 195 211 216 206 210 211 211 212 212 216 210 205 208 220 238 252 258 266 275 272 276 279
20 171 184 200 196 198 183 150 125 93 61 43 59 341 216 201 307 290 190 168 182 191 192 199 199 202 212 208 209 210 208 207 209 216 231 245 253 265 269 266 266 269 279
70 95 168 157 173 178 190 171 160 181 300 291 299 294 261 188 241 216 192 169 179 199 193 195 196 199 208 208 202 202 208 212 213 216 237 246 257 260 265 266 256 262 296
117 162 172 186 192 201 202 211 263 260 268 234 353 236 188 202 176 221 203 191 197 193 194 194 195 196 194 195 201 210 214 207 219 234 242 244 244 258 260 246 255 277 313
108 148 160 178 207 227 244 261 259 246 208 171 209 216 200 191 192 194 195 198 197 192 186 179 178 182 187 198 203 201 204 215 231 240 242 247 251 245 237 247 266 290 328
100 113 123 129 199 222 212 198 186 192 147 155 187 197 195 199 186 184 179 177 179 175 175 176 179 182 187 186 188 200 222 237 239 239 238 235 229 226 233 248 272 297 341
87 90 98 113 139 131 138 152 163 170 176 179 185 189 186 173 174 173 171 168 166 175 183 182 181 180 176 177 183 205 239 230 225 224 229 224 220 220 233 250 272 283 340
96 93 95 101 118 123 126 132 146 159 168 172 179 178 177 176 171 168 168 168 173 178 182 184 178 166 166 168 159 165 124 216 220 219 224 220 214 222 239 257 262 280 329
98 133 142 142 132 129 139 152 156 167 182 188 186 180 177 178 180 181 182 180 177 181 186 182 183 184 182 201 203 195 178 266 231 220 216 210 214 227 245 250 253 285 311
77 90 105 120 129 121 117 141 175 202 222 215 200 197 202 202 194 191 193 193 192 193 191 188 195 201 209 206 208 184 164 198 246 205 198 202 217 229 240 249 256 263 290
106 116 112 100 147 145 120 109 146 221 208 195 188 203 209 206 207 205 201 201 198 195 199 203 206 212 214 210 205 195 194 207 216 186 192 203 226 241 250 242 230 230 267